Time,TemperatureF,DewpointF,PressureIn,WindDirection,WindDirectionDegrees,WindSpeedMPH,WindSpeedGustMPH,Humidity,HourlyPrecipIn,Conditions,Clouds,dailyrainin,SoftwareType,DateUTC
2013-09-15 00:03:00,-999.0,-99.9,-100.00,NNE,27,0.0,0.0,-999,-99.99,,,-99.99,,2013-09-15 04:03:00,
2013-09-15 00:24:00,48.0,-99.9,-100.00,NNE,27,0.0,0.0,-999,-99.99,,,-99.99,,2013-09-15 04:24:00,
2013-09-15 00:34:00,48.0,-99.9,-100.00,NNE,27,0.0,0.0,-999,-99.99,,,-99.99,,2013-09-15 04:34:00,
2013-09-15 00:55:00,47.0,-99.9,-100.00,NNE,27,0.0,0.0,-999,-99.99,,,-99.99,,2013-09-15 04:55:00,
2013-09-15 01:23:00,46.0,-99.9,-100.00,NNE,27,0.0,0.0,-999,-99.99,,,-99.99,,2013-09-15 05:23:00,
2013-09-15 01:53:00,46.0,-99.9,-100.00,NNE,27,0.0,0.0,-999,-99.99,,,-99.99,,2013-09-15 05:53:00,
2013-09-15 02:22:00,45.0,-99.9,-100.00,NNE,27,0.0,0.0,-999,-99.99,,,-99.99,,2013-09-15 06:22:00,
2013-09-15 02:52:00,45.0,-99.9,-100.00,NNE,27,0.0,0.0,-999,-99.99,,,-99.99,,2013-09-15 06:52:00,
2013-09-15 03:22:00,44.0,-99.9,-100.00,NNE,27,0.0,0.0,-999,-99.99,,,-99.99,,2013-09-15 07:22:00,
2013-09-15 03:53:00,44.0,-99.9,-100.00,NNE,27,0.0,0.0,-999,-99.99,,,-99.99,,2013-09-15 07:53:00,
2013-09-15 04:02:00,44.0,-99.9,-100.00,NNE,27,0.0,0.0,-999,-99.99,,,-99.99,,2013-09-15 08:02:00,
2013-09-15 04:22:00,44.0,-99.9,-100.00,NNE,27,0.0,0.0,-999,-99.99,,,-99.99,,2013-09-15 08:22:00,
2013-09-15 04:52:00,44.0,-99.9,-100.00,NNE,27,0.0,0.0,-999,-99.99,,,-99.99,,2013-09-15 08:52:00,
2013-09-15 05:22:00,44.0,-99.9,-100.00,NNE,27,0.0,0.0,-999,-99.99,,,-99.99,,2013-09-15 09:22:00,
2013-09-15 05:53:00,44.0,43.0,30.16,NNE,27,0.0,0.0,97,0.00,,,-99.99,,2013-09-15 09:53:00,
2013-09-15 06:01:00,43.0,-99.9,-100.00,NNE,27,0.0,0.0,-999,-99.99,,,-99.99,,2013-09-15 10:01:00,
2013-09-15 06:03:00,44.0,43.0,30.16,NNE,27,0.0,0.0,97,0.00,,,-99.99,,2013-09-15 10:03:00,
2013-09-15 06:23:00,43.0,-99.9,-100.00,NNE,27,0.0,0.0,-999,-99.99,,,-99.99,,2013-09-15 10:23:00,
2013-09-15 06:33:00,43.0,-99.9,-100.00,NNE,27,0.0,0.0,-999,-99.99,,,-99.99,,2013-09-15 10:33:00,
2013-09-15 06:53:00,43.0,-99.9,-100.00,NNE,27,0.0,0.0,-999,-99.99,,,-99.99,,2013-09-15 10:53:00,
2013-09-15 07:52:00,45.0,-99.9,-100.00,NNE,27,0.0,0.0,-999,-99.99,,,-99.99,,2013-09-15 11:52:00,
2013-09-15 08:22:00,47.0,-99.9,-100.00,NNE,27,0.0,0.0,-999,-99.99,,,-99.99,,2013-09-15 12:22:00,
2013-09-15 08:52:00,47.0,-99.9,-100.00,NNE,27,0.0,0.0,-999,-99.99,,,-99.99,,2013-09-15 12:52:00,
2013-09-15 09:22:00,48.0,-99.9,-100.00,NNE,27,0.0,0.0,-999,-99.99,,,-99.99,,2013-09-15 13:22:00,
2013-09-15 09:53:00,49.0,-99.9,-100.00,NNE,27,0.0,0.0,-999,-99.99,,,-99.99,,2013-09-15 13:53:00,
2013-09-15 10:22:00,53.0,52.0,30.20,South,171,0.0,2.0,95,0.00,,,-99.99,,2013-09-15 14:22:00,
2013-09-15 15:22:00,69.0,60.0,30.14,SSE,158,3.0,10.0,72,0.00,,,-99.99,,2013-09-15 19:22:00,
2013-09-15 15:52:00,70.0,59.0,30.12,South,177,4.0,9.0,68,0.00,,,-99.99,,2013-09-15 19:52:00,
2013-09-15 16:22:00,71.0,59.0,30.11,South,184,4.0,12.0,67,0.00,,,-99.99,,2013-09-15 20:22:00,
2013-09-15 16:53:00,69.0,59.0,30.11,South,170,1.0,7.0,70,0.00,,,-99.99,,2013-09-15 20:53:00,
2013-09-15 17:22:00,69.0,59.0,30.11,South,190,1.0,7.0,71,0.00,,,-99.99,,2013-09-15 21:22:00,
2013-09-15 17:54:00,68.0,59.0,30.11,SSW,212,0.0,3.0,74,0.00,,,-99.99,,2013-09-15 21:54:00,
2013-09-15 18:23:00,68.0,59.0,30.10,SSW,195,0.0,7.0,74,0.00,,,-99.99,,2013-09-15 22:23:00,
2013-09-15 18:33:00,68.0,59.0,30.10,SSW,195,0.0,7.0,74,0.00,,,-99.99,,2013-09-15 22:33:00,
2013-09-15 18:53:00,68.0,59.0,30.10,SSW,195,0.0,7.0,74,0.00,,,-99.99,,2013-09-15 22:53:00,
2013-09-15 19:22:00,66.0,59.0,30.11,SSW,206,0.0,6.0,77,0.00,,,-99.99,,2013-09-15 23:22:00,
2013-09-15 19:52:00,64.0,58.0,30.10,SSE,168,0.0,0.0,81,0.00,,,-99.99,,2013-09-15 23:52:00,
2013-09-15 20:22:00,63.0,58.0,30.11,SSE,168,0.0,0.0,84,0.00,,,-99.99,,2013-09-16 00:22:00,
2013-09-15 20:52:00,62.0,58.0,30.11,SSE,168,0.0,0.0,87,0.00,,,-99.99,,2013-09-16 00:52:00,
2013-09-15 21:12:00,61.0,58.0,30.11,SSE,168,0.0,0.0,90,0.00,,,-99.99,,2013-09-16 01:12:00,
2013-09-15 21:21:00,61.0,58.0,30.11,SSE,168,0.0,0.0,90,0.00,,,-99.99,,2013-09-16 01:21:00,
2013-09-15 21:52:00,59.0,57.0,30.11,SSE,168,0.0,0.0,92,0.00,,,-99.99,,2013-09-16 01:52:00,
2013-09-15 22:22:00,58.0,56.0,30.12,SSE,168,0.0,0.0,93,0.00,,,-99.99,,2013-09-16 02:22:00,
2013-09-15 22:32:00,58.0,56.0,30.12,SSE,168,0.0,0.0,93,0.00,,,-99.99,,2013-09-16 02:32:00,
2013-09-15 22:52:00,58.0,56.0,30.11,SSE,168,0.0,0.0,94,0.00,,,-99.99,,2013-09-16 02:52:00,
2013-09-15 23:22:00,58.0,56.0,30.11,SSE,168,0.0,0.0,94,0.00,,,-99.99,,2013-09-16 03:22:00,
2013-09-15 23:54:00,57.0,56.0,30.11,SSE,168,0.0,0.0,95,0.00,,,-99.99,,2013-09-16 03:54:00,